Location: Newark
(23.3970°S, 47.6010°W)
Time: 14:44:58
(UTC+00:00)

deb Explorer IX - Pass Details

Date: 18 February 2020
Orbit: 547 x 1100 km, 38.8° (Epoch: 04 April)

Event Time Altitude Azimuth Distance (km) Brightness Sun altitude
Rises 04:37:24 0° 255° (WSW) 3,907 - -50.5°
Reaches altitude 10° 04:40:47 10° 242° (WSW) 2,964 - -50.1°
Maximum altitude 04:46:33 24° 190° (S) 2,073 - -49.4°
Exits shadow 04:50:09 17° 151° (SSE) 2,420 ? -49.0°
Drops below altitude 10° 04:52:08 10° 137° (SE) 2,858 ? -48.8°
Sets 04:55:21 0° 124° (ESE) 3,739 ? -48.3°
